Weather History for KE80 - February, 2013

Change the Weather History Date:

Sunday, February 10, 2013

  Actual Average (KABQ) Record (KABQ)
Temperature  
Mean Temperature 34 °F 40 °F  
Max Temperature 44 °F 51 °F 72 °F (1916)
Min Temperature 25 °F 29 °F 5 °F (1933)
Degree Days  
Heating Degree Days 30 25  
Month to date heating degree days 257  
Since 1 July heating degree days 2899  
Cooling Degree Days 0 0  
Month to date cooling degree days 0  
Year to date cooling degree days 0  
Moisture  
Dew Point 14 °F    
Average Humidity 45    
Maximum Humidity 69    
Minimum Humidity 26    
Precipitation  
Precipitation 0.00 in 0.02 in 0.19 in (1976)
Month to date precipitation 0.16  
Year to date precipitation 0.54  
Snow  
Snow 0.00 in - - ()
Month to date snowfall  
Since 1 July snowfall  
Snow Depth -    
Sea Level Pressure  
Sea Level Pressure 29.91 in    
Wind  
Wind Speed 7 mph (WSW)    
Max Wind Speed 17 mph    
Max Gust Speed 21 mph    
Visibility 10 miles    
Events      
T = Trace of Precipitation, MM = Missing Value Source: NWS Daily Summary

Daily Weather History Graph

Daily Weather History Graph

Search for Another Location

Airport or City:

Trip Planner

Search our weather history database for the weather conditions in past years. The results will help you decide how hot, cold, wet, or windy it might be!

Date:

Astronomy

Feb. 10, 2013 Rise Set
Actual Time 6:57 AM MST 5:46 PM MST
Civil Twilight 6:31 AM MST 6:12 PM MST
Nautical Twilight 6:01 AM MST 6:41 PM MST
Astronomical Twilight 5:32 AM MST 7:11 PM MST
Moon 6:52 AM MST (2/10) 6:35 PM MST (2/10)
Length of Visible Light 11h 40m
Length of Day
10h 48m
New Moon, 0% of the Moon is Illuminated
Feb 10
New Moon
Feb 17
First Quarter
Feb 25
Full
Mar 4
Last Quarter
Mar 11
New

Hourly Weather History & Observations

Time (MST) Temp. Windchill Dew Point Humidity Pressure Visibility Wind Dir Wind Speed Gust Speed Precip Events Conditions
12:15 AM 31.1 °F 23.1 °F 15.1 °F 52% 29.88 in 10.0 mi NW 9.2 mph - N/A   Clear
12:35 AM 31.3 °F 25.6 °F 15.3 °F 52% 29.88 in 10.0 mi North 5.8 mph - N/A   Clear
12:55 AM 30.2 °F 23.4 °F 15.4 °F 54% 29.88 in 10.0 mi WNW 6.9 mph - N/A   Clear
1:15 AM 30.9 °F 24.3 °F 15.6 °F 53% 29.88 in 10.0 mi West 6.9 mph - N/A   Clear
1:35 AM 30.4 °F 24.5 °F 16.2 °F 56% 29.88 in 10.0 mi WSW 5.8 mph - N/A   Scattered Clouds
1:55 AM 29.1 °F 22.1 °F 15.6 °F 57% 29.88 in 10.0 mi WSW 6.9 mph - N/A   Scattered Clouds
2:15 AM 29.1 °F 24.1 °F 16.3 °F 59% 29.88 in 10.0 mi West 4.6 mph - N/A   Clear
2:35 AM 30.9 °F 22.2 °F 17.2 °F 57% 29.89 in 10.0 mi West 10.4 mph - N/A   Scattered Clouds
2:55 AM 28.4 °F - 16.3 °F 61% 29.89 in 10.0 mi Calm Calm - N/A   Mostly Cloudy
3:15 AM 27.3 °F - 15.8 °F 62% 29.89 in 10.0 mi Calm Calm - N/A   Mostly Cloudy
3:35 AM 28.4 °F - 15.8 °F 59% 29.88 in 10.0 mi Calm Calm - N/A   Mostly Cloudy
3:55 AM 27.3 °F - 15.6 °F 61% 29.88 in 10.0 mi Calm Calm - N/A   Scattered Clouds
4:15 AM 25.9 °F - 15.3 °F 64% 29.88 in 10.0 mi Calm Calm - N/A   Mostly Cloudy
4:35 AM 31.1 °F 27.7 °F 15.4 °F 52% 29.88 in 10.0 mi West 3.5 mph - N/A   Mostly Cloudy
4:55 AM 25.5 °F 19.9 °F 14.2 °F 62% 29.89 in 10.0 mi SW 4.6 mph - N/A   Scattered Clouds
5:15 AM 26.2 °F 15.2 °F 15.3 °F 63% 29.89 in 10.0 mi SW 12.7 mph - N/A   Mostly Cloudy
5:35 AM 29.1 °F 18.9 °F 15.3 °F 56% 29.89 in 10.0 mi SW 12.7 mph - N/A   Scattered Clouds
5:55 AM 29.1 °F 19.4 °F 15.8 °F 58% 29.89 in 10.0 mi WSW 11.5 mph - N/A   Clear
6:15 AM 26.8 °F 20.2 °F 14.9 °F 61% 29.90 in 10.0 mi SE 5.8 mph - N/A   Clear
6:35 AM 27.1 °F 21.8 °F 15.3 °F 61% 29.91 in 10.0 mi SSE 4.6 mph - N/A   Scattered Clouds
6:55 AM 25.9 °F 16.6 °F 15.3 °F 64% 29.91 in 10.0 mi SSW 9.2 mph - N/A   Scattered Clouds
7:15 AM 26.1 °F 15.0 °F 14.9 °F 63% 29.91 in 10.0 mi WSW 12.7 mph - N/A   Clear
7:35 AM 28.8 °F 17.5 °F 16.5 °F 60% 29.92 in 10.0 mi SW 15.0 mph - N/A   Clear
7:55 AM 31.3 °F 19.9 °F 16.5 °F 54% 29.93 in 10.0 mi SW 17.3 mph - N/A   Clear
8:15 AM 32.9 °F 22.8 °F 16.5 °F 51% 29.93 in 10.0 mi SW 15.0 mph - N/A   Clear
8:35 AM 32.0 °F 24.8 °F 16.3 °F 52% 29.95 in 10.0 mi SW 8.1 mph - N/A   Clear
8:55 AM 34.3 °F 25.9 °F 16.9 °F 49% 29.95 in 10.0 mi South 11.5 mph - N/A   Clear
9:15 AM 35.2 °F 25.8 °F 15.8 °F 45% 29.95 in 10.0 mi South 15.0 mph - N/A   Clear
9:35 AM 36.1 °F 28.2 °F 16.0 °F 44% 29.96 in 10.0 mi SW 11.5 mph - N/A   Clear
9:55 AM 37.6 °F 30.0 °F 15.6 °F 41% 29.97 in 10.0 mi WSW 11.5 mph - N/A   Clear
10:15 AM 38.7 °F 30.9 °F 14.9 °F 38% 29.96 in 10.0 mi SW 12.7 mph 18.4 mph N/A   Mostly Cloudy
10:35 AM 39.6 °F 32.5 °F 14.7 °F 36% 29.97 in 10.0 mi WSW 11.5 mph 16.1 mph N/A   Overcast
10:55 AM 38.7 °F 30.1 °F 14.7 °F 38% 29.96 in 10.0 mi West 15.0 mph - N/A   Mostly Cloudy
11:15 AM 39.9 °F 35.1 °F 14.9 °F 36% 29.96 in 10.0 mi WSW 6.9 mph - N/A   Scattered Clouds
11:35 AM 39.6 °F 33.5 °F 14.5 °F 36% 29.96 in 10.0 mi SW 9.2 mph 18.4 mph N/A   Mostly Cloudy
11:55 AM 40.1 °F 36.9 °F 14.9 °F 36% 29.95 in 10.0 mi SW 4.6 mph - N/A   Overcast
12:15 PM 39.0 °F 36.8 °F 13.6 °F 36% 29.95 in 10.0 mi WSW 3.5 mph - N/A   Overcast
12:35 PM 40.5 °F 36.5 °F 13.5 °F 33% 29.93 in 10.0 mi WNW 5.8 mph - N/A   Overcast
12:55 PM 41.2 °F 36.6 °F 13.1 °F 32% 29.92 in 10.0 mi NNW 6.9 mph - N/A   Overcast
1:15 PM 43.2 °F 36.2 °F 12.6 °F 29% 29.91 in 10.0 mi WSW 13.8 mph 19.6 mph N/A   Mostly Cloudy
1:35 PM 42.4 °F 35.3 °F 12.4 °F 29% 29.91 in 10.0 mi West 13.8 mph 17.3 mph N/A   Scattered Clouds
1:55 PM 43.3 °F 38.6 °F 12.6 °F 29% 29.90 in 10.0 mi West 8.1 mph 16.1 mph N/A   Clear
2:15 PM 43.7 °F 38.6 °F 12.4 °F 28% 29.89 in 10.0 mi WSW 9.2 mph 20.7 mph N/A   Clear
2:35 PM 43.9 °F 38.8 °F 12.6 °F 28% 29.89 in 10.0 mi West 9.2 mph 17.3 mph N/A   Scattered Clouds
2:55 PM 44.8 °F 41.0 °F 12.2 °F 27% 29.88 in 10.0 mi West 6.9 mph 10.4 mph N/A   Scattered Clouds
3:15 PM 44.4 °F 39.5 °F 11.7 °F 27% 29.88 in 10.0 mi SW 9.2 mph - N/A   Clear
3:35 PM 44.4 °F 39.5 °F 11.3 °F 26% 29.88 in 10.0 mi West 9.2 mph - N/A   Clear
3:55 PM 44.1 °F 40.8 °F 11.7 °F 27% 29.88 in 10.0 mi SW 5.8 mph - N/A   Clear
4:15 PM 43.7 °F - 11.7 °F 27% 29.87 in 10.0 mi Calm Calm - N/A   Scattered Clouds
4:35 PM 43.7 °F - 11.7 °F 27% 29.88 in 10.0 mi Calm Calm - N/A   Clear
4:55 PM 43.9 °F 41.3 °F 11.8 °F 27% 29.88 in 10.0 mi SW 4.6 mph - N/A   Clear
5:15 PM 42.4 °F 38.1 °F 12.2 °F 29% 29.88 in 10.0 mi South 6.9 mph - N/A   Clear
5:35 PM 40.8 °F 36.2 °F 11.7 °F 30% 29.89 in 10.0 mi SSE 6.9 mph - N/A   Clear
5:55 PM 39.7 °F 35.6 °F 11.1 °F 31% 29.89 in 10.0 mi SE 5.8 mph - N/A   Clear
6:15 PM 37.9 °F 35.5 °F 10.8 °F 33% 29.90 in 10.0 mi ESE 3.5 mph - N/A   Clear
6:35 PM 38.3 °F 34.8 °F 11.3 °F 33% 29.90 in 10.0 mi East 4.6 mph - N/A   Mostly Cloudy
6:55 PM 37.8 °F 34.2 °F 10.9 °F 33% 29.90 in 10.0 mi East 4.6 mph - N/A   Scattered Clouds
7:15 PM 36.1 °F 32.3 °F 10.0 °F 34% 29.91 in 10.0 mi East 4.6 mph - N/A   Clear
7:35 PM 36.5 °F 31.8 °F 10.9 °F 35% 29.91 in 10.0 mi ESE 5.8 mph - N/A   Clear
7:55 PM 34.2 °F 29.0 °F 9.9 °F 36% 29.90 in 10.0 mi ENE 5.8 mph - N/A   Clear
8:15 PM 32.5 °F 27.1 °F 9.1 °F 38% 29.91 in 10.0 mi North 5.8 mph - N/A   Clear
8:35 PM 31.5 °F 24.2 °F 8.6 °F 38% 29.91 in 10.0 mi North 8.1 mph - N/A   Clear
8:55 PM 30.2 °F 24.3 °F 7.7 °F 39% 29.93 in 10.0 mi NE 5.8 mph - N/A   Clear
9:15 PM 32.0 °F - 8.1 °F 37% 29.93 in 10.0 mi Calm Calm - N/A   Clear
9:35 PM 28.4 °F 20.4 °F 8.4 °F 43% 29.94 in 10.0 mi WNW 8.1 mph - N/A   Scattered Clouds
9:55 PM 30.0 °F 21.7 °F 9.5 °F 42% 29.94 in 10.0 mi NNW 9.2 mph - N/A   Scattered Clouds
10:15 PM 30.6 °F 23.8 °F 14.9 °F 52% 29.95 in 10.0 mi NW 6.9 mph - N/A   Clear
10:35 PM 29.3 °F 21.5 °F 15.3 °F 56% 29.95 in 10.0 mi NNW 8.1 mph - N/A   Clear
10:55 PM 31.8 °F 26.2 °F 16.9 °F 54% 29.95 in 10.0 mi NNW 5.8 mph - N/A   Clear
11:15 PM 30.9 °F 25.2 °F 17.6 °F 58% 29.95 in 10.0 mi North 5.8 mph - N/A   Clear
11:35 PM 29.1 °F 25.4 °F 18.1 °F 64% 29.96 in 10.0 mi West 3.5 mph - N/A   Clear
11:55 PM 25.9 °F 19.2 °F 17.1 °F 69% 29.98 in 10.0 mi ENE 5.8 mph - N/A   Clear